Location: Newark
(45.4426°N, 12.3253°E)
Time: 08:42:34
(UTC+00:00)

OTV 5 (USA 277) - Visible Passes

Search period start: 23 October 2019 00:00
Search period end: 02 November 2019 00:00
Orbit: 310 x 324 km, 54.5° (Epoch: 17 October)

Date Brightness Start Highest point End Pass type
(mag) Time Alt. Az. Time Alt. Az. Time Alt. Az.
28 Oct ? 17:06:16 10° SSE 17:07:43 13° SE 17:07:46 13° SE visible
29 Oct ? 17:19:33 10° SSW 17:22:02 32° SE 17:22:16 32° SE visible
30 Oct ? 17:33:47 10° SW 17:36:30 89° S 17:36:39 79° ENE visible
31 Oct ? 17:48:31 10° W 17:50:56 38° NW 17:50:56 38° NW visible
01 Nov ? 16:28:41 10° SW 16:31:21 53° SE 16:34:03 10° ENE visible
01 Nov ? 18:03:36 10° WNW 18:05:08 20° NW 18:05:08 20° NW visible
